北斗二号 G8 (BEIDOU 2 G8)

导读

BEIDOU-2 G8 是中国北斗二代卫星导航系统中的一颗地球同步轨道卫星,主要用于提供高精度定位、导航和授时服务。该卫星于2012年发射,是北斗系统区域服务建设的重要组成部分。G8卫星的部署增强了系统在亚太地区的覆盖能力与稳定性,提升了定位精度和信号可靠性。其运行有助于支持交通、通信、气象、测绘等多个领域的应用,推动了中国自主卫星导航系统的发展,减少了对GPS的依赖。

基本信息
目录编号:
44231
目录名称:
BEIDOU 2 G8
国际标识:
2019-027A
轨道中心:
EARTH
卫星名称:
北斗二号 G8
卫星全名:
北斗二号 G8 (BEIDOU 2 G8)
卫星状态:
在轨 (已飞行2676 天)
发射日期:
2019-05-17 UTC
国别 :
中国 (CN)
星等 :
--
该卫星已列入 空间交会检测服务 Space Conjunction Data Service (SCDS) ,当前飞行风险评估等级: 无高风险
轨道信息
数据来源 国际轨道数据 AOE轨道数据
星历时间 2026-09-13T07:08:45+0800
5小时前
查看轨道信息
2026-09-10T21:00:00+0800
2天前
查看轨道信息
半长轴 42164.728km 42164.616km
偏心率 0.0009083 0.0009096
轨道倾角 1.876° 1.869°
近地点辐角 278.318° 279.013°
升交点赤经 74.318° 74.350°
平近点角 131.072° 335.763°
近地点 35748.292km 35748.126km
远地点 35824.89km 35824.832km
周期 1436.097分钟 1436.091分钟
每日圈数 1.002718 1.002722
详细信息
平衡模式:
三轴稳定
制造商(研发单位):
中国空间技术研究院
制造商所在国:
中国
使用方式:
暂无
卫星简介
北斗卫星导航系统是中国着眼于国家安全和经济社会发展需要,自主建设运行的全球卫星导航系统,是为全球用户提供全天候、全天时、高精度的定位、导航和授时服务的国家重要时空基础设施。该卫星仍在工作。
2D轨道图
3D轨道图
轨道高度分析图
轨道倾角分析图
轨道综合分析图
查看轨道综合分析图
与全量物体交会距离演化趋势
与全量物体交会风险概率演化趋势